| time (UTC) | temp C | wind direction | speed KPH | gust KPH | rain 1hr cm | rain 24hr cm | rain mn cm | humidity % | barometer mb |
| 20260902014515 | 26 | 248 | 0.0 | 0.0 | 0.00 | 0.00 | 0.00 | 62 | 1016.2 |
| 20260902014014 | 26 | 248 | 0.0 | 0.0 | 0.00 | 0.00 | 0.00 | 62 | 1016.3 |
| 20260902013514 | 26 | 248 | 0.0 | 0.0 | 0.00 | 0.00 | 0.00 | 62 | 1016.2 |
| 20260902013017 | 26 | 248 | 0.0 | 0.0 | 0.00 | 0.00 | 0.00 | 62 | 1016.2 |
| 20260902012513 | 26 | 248 | 0.0 | 0.0 | 0.00 | 0.00 | 0.00 | 61 | 1016.2 |
| 20260902012017 | 26 | 248 | 0.0 | 0.0 | 0.00 | 0.00 | 0.00 | 60 | 1016.0 |
| 20260902011513 | 26 | 248 | 0.0 | 0.0 | 0.00 | 0.00 | 0.00 | 60 | 1016.0 |
| 20260902011014 | 27 | 248 | 0.0 | 0.0 | 0.00 | 0.00 | 0.00 | 60 | 1015.8 |
| 20260902010513 | 27 | 248 | 0.0 | 0.0 | 0.00 | 0.00 | 0.00 | 59 | 1015.8 |
| 20260902010013 | 27 | 248 | 0.0 | 0.0 | 0.00 | 0.00 | 0.00 | 58 | 1015.7 |
| 20260902005515 | 28 | 249 | 0.0 | 0.0 | 0.00 | 0.00 | 0.00 | 57 | 1015.7 |
| 20260902005013 | 28 | 249 | 0.0 | 0.0 | 0.00 | 0.00 | 0.00 | 57 | 1015.6 |
| 20260902004515 | 28 | 249 | 0.0 | 0.0 | 0.00 | 0.00 | 0.00 | 57 | 1015.6 |
| 20260902004013 | 28 | 249 | 0.0 | 0.0 | 0.00 | 0.00 | 0.00 | 56 | 1015.6 |
| 20260902003512 | 28 | 249 | 0.0 | 0.0 | 0.00 | 0.00 | 0.00 | 56 | 1015.6 |
| 20260902003012 | 29 | 249 | 0.0 | 0.0 | 0.00 | 0.00 | 0.00 | 55 | 1015.6 |
| 20260902002512 | 30 | 249 | 0.0 | 0.0 | 0.00 | 0.00 | 0.00 | 54 | 1015.6 |
| 20260902002017 | 30 | 249 | 0.0 | 0.0 | 0.00 | 0.00 | 0.00 | 54 | 1015.6 |
| 20260902001511 | 30 | 249 | 0.0 | 0.0 | 0.00 | 0.00 | 0.00 | 51 | 1015.6 |
| 20260902001010 | 31 | 249 | 0.0 | 0.0 | 0.00 | 0.00 | 0.00 | 50 | 1015.7 |
| 20260902000510 | 31 | 249 | 0.0 | 0.0 | 0.00 | 0.00 | 0.00 | 50 | 1015.7 |
| 20260902000012 | 31 | 249 | 0.0 | 0.0 | 0.00 | 0.00 | 0.00 | 50 | 1015.8 |
| 20260901235510 | 31 | 249 | 0.0 | 0.0 | 0.00 | 0.00 | 0.00 | 51 | 1015.8 |
| 20260901235009 | 31 | 249 | 0.0 | 0.0 | 0.00 | 0.00 | 0.00 | 50 | 1015.8 |
| 20260901234510 | 31 | 249 | 0.0 | 0.0 | 0.00 | 0.00 | 0.00 | 50 | 1015.8 |
| 20260901234010 | 31 | 249 | 0.0 | 0.0 | 0.00 | 0.00 | 0.00 | 49 | 1015.7 |
| 20260901233509 | 32 | 249 | 0.0 | 0.0 | 0.00 | 0.00 | 0.00 | 48 | 1015.8 |
| 20260901233010 | 32 | 249 | 0.0 | 0.0 | 0.00 | 0.00 | 0.00 | 46 | 1015.8 |
| 20260901232510 | 33 | 249 | 0.0 | 0.0 | 0.00 | 0.00 | 0.00 | 44 | 1015.8 |
| 20260901232009 | 34 | 249 | 0.0 | 0.0 | 0.00 | 0.00 | 0.00 | 41 | 1015.8 |
| 20260901231510 | 35 | 249 | 0.0 | 0.0 | 0.00 | 0.00 | 0.00 | 38 | 1015.8 |
| 20260901231009 | 34 | 249 | 0.0 | 0.0 | 0.00 | 0.00 | 0.00 | 39 | 1015.7 |
| 20260901230508 | 35 | 249 | 0.0 | 0.0 | 0.00 | 0.00 | 0.00 | 38 | 1015.8 |
| 20260901230008 | 35 | 249 | 0.0 | 0.0 | 0.00 | 0.00 | 0.00 | 37 | 1015.8 |
| 20260901225508 | 34 | 249 | 0.0 | 0.0 | 0.00 | 0.00 | 0.00 | 38 | 1015.8 |
| 20260901225009 | 34 | 249 | 0.0 | 0.0 | 0.00 | 0.00 | 0.00 | 37 | 1015.8 |
| 20260901224508 | 33 | 249 | 0.0 | 0.0 | 0.00 | 0.00 | 0.00 | 38 | 1015.9 |
| 20260901224007 | 33 | 249 | 0.0 | 0.0 | 0.00 | 0.00 | 0.00 | 38 | 1016.0 |
| 20260901223508 | 33 | 271 | 0.0 | 0.0 | 0.00 | 0.00 | 0.00 | 38 | 1015.8 |
| 20260901223015 | 33 | 240 | 0.0 | 0.0 | 0.00 | 0.00 | 0.00 | 38 | 1015.9 |
| 20260901222508 | 34 | 238 | 0.0 | 0.0 | 0.00 | 0.00 | 0.00 | 38 | 1015.9 |
| 20260901222009 | 35 | 242 | 0.0 | 0.0 | 0.00 | 0.00 | 0.00 | 37 | 1015.8 |
| 20260901221507 | 34 | 243 | 0.0 | 0.0 | 0.00 | 0.00 | 0.00 | 39 | 1015.8 |
| 20260901221007 | 33 | 243 | 0.0 | 1.6 | 0.00 | 0.00 | 0.00 | 38 | 1015.8 |
| 20260901220506 | 34 | 220 | 0.0 | 1.6 | 0.00 | 0.00 | 0.00 | 37 | 1015.8 |
| 20260901220007 | 35 | 252 | 0.0 | 0.0 | 0.00 | 0.00 | 0.00 | 39 | 1015.7 |
| 20260901215507 | 33 | 252 | 0.0 | 0.0 | 0.00 | 0.00 | 0.00 | 38 | 1015.7 |
| 20260901215006 | 33 | 263 | 0.0 | 0.0 | 0.00 | 0.00 | 0.00 | 39 | 1015.7 |
| 20260901214506 | 34 | 225 | 0.0 | 1.6 | 0.00 | 0.00 | 0.00 | 37 | 1015.7 |
| 20260901214010 | 34 | 184 | 0.0 | 1.6 | 0.00 | 0.00 | 0.00 | 37 | 1015.7 |
| 20260901213505 | 34 | 232 | 0.0 | 0.0 | 0.00 | 0.00 | 0.00 | 38 | 1015.8 |
| 20260901213011 | 34 | 284 | 0.0 | 0.0 | 0.00 | 0.00 | 0.00 | 37 | 1015.7 |
| 20260901212505 | 34 | 240 | 0.0 | 0.0 | 0.00 | 0.00 | 0.00 | 38 | 1015.8 |
| 20260901212006 | 34 | 260 | 0.0 | 0.0 | 0.00 | 0.00 | 0.00 | 37 | 1015.7 |
| 20260901211505 | 34 | 281 | 0.0 | 0.0 | 0.00 | 0.00 | 0.00 | 39 | 1015.7 |
| 20260901211003 | 34 | 284 | 0.0 | 0.0 | 0.00 | 0.00 | 0.00 | 38 | 1015.8 |
| 20260901210505 | 34 | 207 | 0.0 | 0.0 | 0.00 | 0.00 | 0.00 | 36 | 1015.8 |
| 20260901210004 | 35 | 236 | 0.0 | 0.0 | 0.00 | 0.00 | 0.00 | 36 | 1015.9 |
| 20260901205505 | 35 | 286 | 0.0 | 0.0 | 0.00 | 0.00 | 0.00 | 38 | 1015.9 |
| 20260901205001 | 35 | 263 | 0.0 | 0.0 | 0.00 | 0.00 | 0.00 | 37 | 1016.0 |
| 20260901204501 | 35 | 215 | 0.0 | 0.0 | 0.00 | 0.00 | 0.00 | 37 | 1016.1 |
| 20260901204101 | 35 | 227 | 0.0 | 1.6 | 0.00 | 0.00 | 0.00 | 36 | 1016.1 |
| 20260901203601 | 34 | 293 | 0.0 | 1.6 | 0.00 | 0.00 | 0.00 | 37 | 1016.2 |
| 20260901203109 | 34 | 335 | 0.0 | 0.0 | 0.00 | 0.00 | 0.00 | 37 | 1016.1 |
| 20260901202558 | 34 | 289 | 0.0 | 0.0 | 0.00 | 0.00 | 0.00 | 37 | 1016.2 |
| 20260901202058 | 33 | 220 | 0.0 | 0.0 | 0.00 | 0.00 | 0.00 | 37 | 1016.3 |
| 20260901201558 | 34 | 269 | 0.0 | 0.0 | 0.00 | 0.00 | 0.00 | 37 | 1016.4 |
| 20260901201057 | 34 | 255 | 0.0 | 1.6 | 0.00 | 0.00 | 0.00 | 37 | 1016.4 |
| 20260901200556 | 34 | 254 | 0.0 | 1.6 | 0.00 | 0.00 | 0.00 | 37 | 1016.5 |
| 20260901200057 | 34 | 269 | 0.0 | 0.0 | 0.00 | 0.00 | 0.00 | 38 | 1016.4 |
| 20260901195558 | 33 | 249 | 0.0 | 0.0 | 0.00 | 0.00 | 0.00 | 37 | 1016.5 |
| 20260901195056 | 34 | 283 | 0.0 | 0.0 | 0.00 | 0.00 | 0.00 | 36 | 1016.7 |
| 20260901194555 | 35 | 197 | 0.0 | 0.0 | 0.00 | 0.00 | 0.00 | 37 | 1016.7 |
| 20260901194054 | 35 | 197 | 0.0 | 1.6 | 0.00 | 0.00 | 0.00 | 35 | 1016.6 |
| 20260901193553 | 34 | 192 | 0.0 | 1.6 | 0.00 | 0.00 | 0.00 | 37 | 1016.7 |
| 20260901193106 | 33 | 290 | 0.0 | 0.0 | 0.00 | 0.00 | 0.00 | 38 | 1016.8 |
| 20260901192553 | 33 | 242 | 0.0 | 0.0 | 0.00 | 0.00 | 0.00 | 38 | 1016.8 |
| 20260901192058 | 33 | 213 | 0.0 | 1.6 | 0.00 | 0.00 | 0.00 | 38 | 1016.9 |
| 20260901191552 | 33 | 250 | 0.0 | 1.6 | 0.00 | 0.00 | 0.00 | 39 | 1016.9 |
| 20260901191056 | 33 | 289 | 0.0 | 0.0 | 0.00 | 0.00 | 0.00 | 40 | 1017.0 |
| 20260901190552 | 33 | 274 | 0.0 | 0.0 | 0.00 | 0.00 | 0.00 | 39 | 1017.0 |
| 20260901190054 | 33 | 269 | 0.0 | 0.0 | 0.00 | 0.00 | 0.00 | 39 | 1017.1 |
| 20260901185552 | 33 | 241 | 0.0 | 0.0 | 0.00 | 0.00 | 0.00 | 38 | 1017.1 |
| 20260901185051 | 33 | 288 | 0.0 | 0.0 | 0.00 | 0.00 | 0.00 | 36 | 1017.2 |
| 20260901184551 | 33 | 279 | 0.0 | 0.0 | 0.00 | 0.00 | 0.00 | 37 | 1017.3 |
| 20260901184050 | 34 | 281 | 0.0 | 0.0 | 0.00 | 0.00 | 0.00 | 39 | 1017.3 |
| 20260901183551 | 33 | 281 | 0.0 | 0.0 | 0.00 | 0.00 | 0.00 | 38 | 1017.4 |
| 20260901183058 | 33 | 293 | 0.0 | 0.0 | 0.00 | 0.00 | 0.00 | 40 | 1017.4 |
| 20260901182553 | 33 | 265 | 0.0 | 1.6 | 0.00 | 0.00 | 0.00 | 40 | 1017.5 |
| 20260901182049 | 33 | 233 | 0.0 | 1.6 | 0.00 | 0.00 | 0.00 | 39 | 1017.5 |
| 20260901181550 | 32 | 248 | 0.0 | 0.0 | 0.00 | 0.00 | 0.00 | 40 | 1017.5 |
| 20260901181051 | 32 | 273 | 0.0 | 0.0 | 0.00 | 0.00 | 0.00 | 40 | 1017.6 |
| 20260901180547 | 33 | 279 | 0.0 | 0.0 | 0.00 | 0.00 | 0.00 | 41 | 1017.6 |
| 20260901180048 | 32 | 281 | 0.0 | 0.0 | 0.00 | 0.00 | 0.00 | 41 | 1017.6 |
| 20260901175547 | 32 | 267 | 0.0 | 0.0 | 0.00 | 0.00 | 0.00 | 41 | 1017.7 |
| 20260901175047 | 33 | 279 | 0.0 | 0.0 | 0.00 | 0.00 | 0.00 | 41 | 1017.7 |
| 20260901174547 | 32 | 232 | 0.0 | 0.0 | 0.00 | 0.00 | 0.00 | 41 | 1017.7 |
| 20260901174047 | 33 | 248 | 0.0 | 1.6 | 0.00 | 0.00 | 0.00 | 41 | 1017.8 |
| 20260901173547 | 32 | 288 | 0.0 | 1.6 | 0.00 | 0.00 | 0.00 | 41 | 1017.9 |
| 20260901173055 | 32 | 270 | 0.0 | 0.0 | 0.00 | 0.00 | 0.00 | 40 | 1017.8 |
| 20260901172546 | 33 | 247 | 0.0 | 0.0 | 0.00 | 0.00 | 0.00 | 42 | 1017.8 |
| 20260901172045 | 32 | 276 | 0.0 | 0.0 | 0.00 | 0.00 | 0.00 | 42 | 1017.9 |
| 20260901171545 | 32 | 270 | 0.0 | 0.0 | 0.00 | 0.00 | 0.00 | 42 | 1018.0 |
| 20260901171043 | 32 | 240 | 0.0 | 0.0 | 0.00 | 0.00 | 0.00 | 44 | 1017.9 |
| 20260901170544 | 32 | 243 | 0.0 | 0.0 | 0.00 | 0.00 | 0.00 | 44 | 1017.9 |
| 20260901170057 | 32 | 250 | 0.0 | 0.0 | 0.00 | 0.00 | 0.00 | 46 | 1017.9 |
| 20260901165543 | 32 | 234 | 0.0 | 0.0 | 0.00 | 0.00 | 0.00 | 44 | 1018.1 |
| 20260901165042 | 32 | 296 | 0.0 | 0.0 | 0.00 | 0.00 | 0.00 | 45 | 1018.1 |
| 20260901164542 | 32 | 275 | 0.0 | 0.0 | 0.00 | 0.00 | 0.00 | 45 | 1018.2 |
| 20260901164041 | 32 | 248 | 0.0 | 0.0 | 0.00 | 0.00 | 0.00 | 46 | 1018.2 |
| 20260901163541 | 32 | 238 | 0.0 | 0.0 | 0.00 | 0.00 | 0.00 | 46 | 1018.3 |
| 20260901163041 | 32 | 243 | 0.0 | 0.0 | 0.00 | 0.00 | 0.00 | 46 | 1018.3 |
| 20260901162541 | 32 | 273 | 0.0 | 0.0 | 0.00 | 0.00 | 0.00 | 47 | 1018.3 |
| 20260901162038 | 32 | 241 | 0.0 | 0.0 | 0.00 | 0.00 | 0.00 | 48 | 1018.4 |
| 20260901161539 | 31 | 294 | 0.0 | 0.0 | 0.00 | 0.00 | 0.00 | 48 | 1018.4 |
| 20260901161038 | 31 | 262 | 0.0 | 0.0 | 0.00 | 0.00 | 0.00 | 48 | 1018.4 |
| 20260901160537 | 31 | 243 | 0.0 | 0.0 | 0.00 | 0.00 | 0.00 | 48 | 1018.5 |
| 20260901160038 | 31 | 265 | 0.0 | 0.0 | 0.00 | 0.00 | 0.00 | 47 | 1018.4 |
| 20260901155537 | 31 | 254 | 0.0 | 0.0 | 0.00 | 0.00 | 0.00 | 49 | 1018.4 |
| 20260901155038 | 31 | 246 | 0.0 | 1.6 | 0.00 | 0.00 | 0.00 | 48 | 1018.5 |
| 20260901154538 | 31 | 236 | 0.0 | 1.6 | 0.00 | 0.00 | 0.00 | 49 | 1018.6 |
| 20260901154037 | 31 | 239 | 0.0 | 0.0 | 0.00 | 0.00 | 0.00 | 49 | 1018.6 |
| 20260901153536 | 31 | 188 | 0.0 | 0.0 | 0.00 | 0.00 | 0.00 | 50 | 1018.6 |
| 20260901153036 | 31 | 242 | 0.0 | 0.0 | 0.00 | 0.00 | 0.00 | 51 | 1018.6 |
| 20260901152531 | 31 | 234 | 0.0 | 0.0 | 0.00 | 0.00 | 0.00 | 51 | 1018.5 |
| 20260901152030 | 30 | 258 | 0.0 | 0.0 | 0.00 | 0.00 | 0.00 | 52 | 1018.5 |
| 20260901151530 | 30 | 252 | 0.0 | 0.0 | 0.00 | 0.00 | 0.00 | 51 | 1018.5 |
| 20260901151030 | 30 | 257 | 0.0 | 1.6 | 0.00 | 0.00 | 0.00 | 52 | 1018.5 |
| 20260901150528 | 30 | 210 | 0.0 | 1.6 | 0.00 | 0.00 | 0.00 | 53 | 1018.5 |
| 20260901150031 | 30 | 226 | 0.0 | 0.0 | 0.00 | 0.00 | 0.00 | 53 | 1018.6 |
| 20260901145527 | 30 | 226 | 0.0 | 0.0 | 0.00 | 0.00 | 0.00 | 53 | 1018.7 |
| 20260901145026 | 29 | 211 | 0.0 | 0.0 | 0.00 | 0.00 | 0.00 | 53 | 1018.8 |
| 20260901144526 | 29 | 210 | 0.0 | 0.0 | 0.00 | 0.00 | 0.00 | 53 | 1018.8 |
| 20260901144026 | 29 | 219 | 0.0 | 0.0 | 0.00 | 0.00 | 0.00 | 53 | 1018.7 |
| 20260901143525 | 29 | 234 | 0.0 | 0.0 | 0.00 | 0.00 | 0.00 | 54 | 1018.7 |
| 20260901143024 | 28 | 244 | 0.0 | 0.0 | 0.00 | 0.00 | 0.00 | 54 | 1018.8 |
| 20260901142522 | 28 | 248 | 0.0 | 0.0 | 0.00 | 0.00 | 0.00 | 54 | 1018.7 |
| 20260901142021 | 28 | 247 | 0.0 | 0.0 | 0.00 | 0.00 | 0.00 | 55 | 1018.8 |
| 20260901141522 | 28 | 224 | 0.0 | 0.0 | 0.00 | 0.00 | 0.00 | 55 | 1018.9 |
| 20260901141025 | 28 | 212 | 0.0 | 0.0 | 0.00 | 0.00 | 0.00 | 56 | 1018.9 |
| 20260901140519 | 28 | 238 | 0.0 | 0.0 | 0.00 | 0.00 | 0.00 | 55 | 1018.9 |
| 20260901140022 | 28 | 252 | 0.0 | 0.0 | 0.00 | 0.00 | 0.00 | 56 | 1018.9 |
| 20260901135518 | 28 | 255 | 0.0 | 0.0 | 0.00 | 0.00 | 0.00 | 56 | 1018.8 |
| 20260901135015 | 27 | 214 | 0.0 | 0.0 | 0.00 | 0.00 | 0.00 | 56 | 1018.7 |
| 20260901134517 | 27 | 219 | 0.0 | 0.0 | 0.00 | 0.00 | 0.00 | 57 | 1018.8 |
| 20260901134019 | 27 | 250 | 0.0 | 0.0 | 0.00 | 0.00 | 0.00 | 58 | 1018.8 |
| 20260901133511 | 26 | 191 | 0.0 | 0.0 | 0.00 | 0.00 | 0.00 | 58 | 1018.8 |
| 20260901133011 | 26 | 190 | 0.0 | 0.0 | 0.00 | 0.00 | 0.00 | 58 | 1018.8 |
| 20260901132510 | 26 | 194 | 0.0 | 0.0 | 0.00 | 0.00 | 0.00 | 59 | 1018.9 |
| 20260901132009 | 25 | 199 | 0.0 | 0.0 | 0.00 | 0.00 | 0.00 | 60 | 1018.8 |
| 20260901131507 | 25 | 207 | 0.0 | 0.0 | 0.00 | 0.00 | 0.00 | 60 | 1018.8 |
| 20260901131005 | 25 | 199 | 0.0 | 0.0 | 0.00 | 0.00 | 0.00 | 60 | 1018.8 |
| 20260901130504 | 24 | 203 | 0.0 | 0.0 | 0.00 | 0.00 | 0.00 | 60 | 1018.8 |
| 20260901130002 | 24 | 208 | 0.0 | 0.0 | 0.00 | 0.00 | 0.00 | 62 | 1018.8 |
| 20260901125503 | 23 | 205 | 0.0 | 0.0 | 0.00 | 0.00 | 0.00 | 62 | 1018.8 |
| 20260901125002 | 23 | 205 | 0.0 | 0.0 | 0.00 | 0.00 | 0.00 | 62 | 1018.8 |
| 20260901124602 | 23 | 205 | 0.0 | 0.0 | 0.00 | 0.00 | 0.00 | 63 | 1018.7 |
| 20260901124502 | 23 | 205 | 0.0 | 0.0 | 0.00 | 0.00 | 0.00 | 64 | 1018.7 |
| 20260901124100 | 22 | 205 | 0.0 | 0.0 | 0.00 | 0.00 | 0.00 | 65 | 1018.8 |
| 20260901124001 | 22 | 205 | 0.0 | 0.0 | 0.00 | 0.00 | 0.00 | 65 | 1018.7 |
| 20260901123600 | 22 | 205 | 0.0 | 0.0 | 0.00 | 0.00 | 0.00 | 65 | 1018.7 |
| 20260901123100 | 22 | 215 | 0.0 | 0.0 | 0.00 | 0.00 | 0.00 | 66 | 1018.7 |
| 20260901122601 | 22 | 215 | 0.0 | 0.0 | 0.00 | 0.00 | 0.00 | 67 | 1018.7 |
| 20260901122059 | 21 | 215 | 0.0 | 0.0 | 0.00 | 0.00 | 0.00 | 68 | 1018.6 |
| 20260901121558 | 21 | 215 | 0.0 | 0.0 | 0.00 | 0.00 | 0.00 | 68 | 1018.6 |
| 20260901121058 | 21 | 215 | 0.0 | 0.0 | 0.00 | 0.00 | 0.00 | 68 | 1018.5 |
| 20260901120602 | 21 | 215 | 0.0 | 0.0 | 0.00 | 0.00 | 0.00 | 68 | 1018.5 |
| 20260901120059 | 21 | 216 | 0.0 | 0.0 | 0.00 | 0.00 | 0.00 | 68 | 1018.5 |
| 20260901115557 | 20 | 216 | 0.0 | 0.0 | 0.00 | 0.00 | 0.00 | 67 | 1018.5 |
| 20260901115056 | 20 | 219 | 0.0 | 0.0 | 0.00 | 0.00 | 0.00 | 67 | 1018.3 |
| 20260901114556 | 20 | 221 | 0.0 | 0.0 | 0.00 | 0.00 | 0.00 | 67 | 1018.3 |
| 20260901114055 | 20 | 222 | 0.0 | 0.0 | 0.00 | 0.00 | 0.00 | 67 | 1018.2 |
| 20260901113554 | 20 | 223 | 0.0 | 0.0 | 0.00 | 0.00 | 0.00 | 67 | 1018.2 |
| 20260901113054 | 20 | 185 | 0.0 | 0.0 | 0.00 | 0.00 | 0.00 | 67 | 1018.2 |
| 20260901112553 | 20 | 185 | 0.0 | 0.0 | 0.00 | 0.00 | 0.00 | 67 | 1018.1 |
| 20260901112052 | 20 | 185 | 0.0 | 0.0 | 0.00 | 0.00 | 0.00 | 66 | 1018.0 |
| 20260901111553 | 20 | 185 | 0.0 | 0.0 | 0.00 | 0.00 | 0.00 | 67 | 1017.9 |
| 20260901111051 | 20 | 185 | 0.0 | 0.0 | 0.00 | 0.00 | 0.00 | 67 | 1017.9 |
| 20260901110550 | 20 | 185 | 0.0 | 0.0 | 0.00 | 0.00 | 0.00 | 67 | 1017.8 |
| 20260901110052 | 20 | 185 | 0.0 | 0.0 | 0.00 | 0.00 | 0.00 | 66 | 1017.8 |
| 20260901105550 | 20 | 185 | 0.0 | 0.0 | 0.00 | 0.00 | 0.00 | 66 | 1017.7 |
| 20260901105049 | 20 | 185 | 0.0 | 0.0 | 0.00 | 0.00 | 0.00 | 66 | 1017.6 |
| 20260901104554 | 20 | 185 | 0.0 | 0.0 | 0.00 | 0.00 | 0.00 | 66 | 1017.6 |
| 20260901104048 | 20 | 185 | 0.0 | 0.0 | 0.00 | 0.00 | 0.00 | 66 | 1017.5 |
| 20260901103548 | 20 | 185 | 0.0 | 0.0 | 0.00 | 0.00 | 0.00 | 66 | 1017.4 |
| 20260901103047 | 20 | 185 | 0.0 | 0.0 | 0.00 | 0.00 | 0.00 | 66 | 1017.4 |
| 20260901102547 | 20 | 196 | 0.0 | 0.0 | 0.00 | 0.00 | 0.00 | 66 | 1017.4 |
| 20260901102048 | 20 | 200 | 0.0 | 0.0 | 0.00 | 0.00 | 0.00 | 66 | 1017.4 |
| 20260901101546 | 20 | 200 | 0.0 | 0.0 | 0.00 | 0.00 | 0.00 | 66 | 1017.4 |
| 20260901101046 | 20 | 200 | 0.0 | 0.0 | 0.00 | 0.00 | 0.00 | 66 | 1017.3 |
| 20260901100545 | 20 | 200 | 0.0 | 0.0 | 0.00 | 0.00 | 0.00 | 66 | 1017.3 |
| 20260901100046 | 20 | 200 | 0.0 | 0.0 | 0.00 | 0.00 | 0.00 | 66 | 1017.2 |
| 20260901095544 | 20 | 200 | 0.0 | 0.0 | 0.00 | 0.00 | 0.00 | 66 | 1017.2 |
| 20260901095045 | 20 | 200 | 0.0 | 0.0 | 0.00 | 0.00 | 0.00 | 66 | 1017.1 |
| 20260901094549 | 20 | 200 | 0.0 | 0.0 | 0.00 | 0.00 | 0.00 | 66 | 1017.2 |
| 20260901094044 | 20 | 200 | 0.0 | 0.0 | 0.00 | 0.00 | 0.00 | 66 | 1017.1 |
| 20260901093545 | 20 | 200 | 0.0 | 0.0 | 0.00 | 0.00 | 0.00 | 66 | 1017.1 |
| 20260901093044 | 20 | 200 | 0.0 | 0.0 | 0.00 | 0.00 | 0.00 | 66 | 1017.0 |
| 20260901092544 | 21 | 201 | 0.0 | 0.0 | 0.00 | 0.00 | 0.00 | 66 | 1016.9 |
| 20260901092043 | 21 | 201 | 0.0 | 0.0 | 0.00 | 0.00 | 0.00 | 66 | 1016.8 |
| 20260901091543 | 21 | 201 | 0.0 | 0.0 | 0.00 | 0.00 | 0.00 | 66 | 1016.7 |
| 20260901091042 | 21 | 201 | 0.0 | 0.0 | 0.00 | 0.00 | 0.00 | 65 | 1016.7 |
| 20260901090543 | 21 | 201 | 0.0 | 0.0 | 0.00 | 0.00 | 0.00 | 65 | 1016.7 |
| 20260901090041 | 21 | 201 | 0.0 | 0.0 | 0.00 | 0.00 | 0.00 | 65 | 1016.7 |
| 20260901085540 | 21 | 201 | 0.0 | 0.0 | 0.00 | 0.00 | 0.00 | 65 | 1016.7 |
| 20260901085040 | 21 | 201 | 0.0 | 0.0 | 0.00 | 0.00 | 0.00 | 65 | 1016.6 |
| 20260901084541 | 21 | 201 | 0.0 | 0.0 | 0.00 | 0.00 | 0.00 | 65 | 1016.6 |
| 20260901084040 | 21 | 201 | 0.0 | 0.0 | 0.00 | 0.00 | 0.00 | 65 | 1016.6 |
| 20260901083542 | 21 | 201 | 0.0 | 0.0 | 0.00 | 0.00 | 0.00 | 65 | 1016.6 |
| 20260901083040 | 21 | 201 | 0.0 | 0.0 | 0.00 | 0.00 | 0.00 | 65 | 1016.5 |
| 20260901082538 | 21 | 197 | 0.0 | 0.0 | 0.00 | 0.00 | 0.00 | 65 | 1016.6 |
| 20260901082042 | 21 | 188 | 0.0 | 0.0 | 0.00 | 0.00 | 0.00 | 65 | 1016.6 |
| 20260901081538 | 21 | 186 | 0.0 | 0.0 | 0.00 | 0.00 | 0.00 | 65 | 1016.7 |
| 20260901081037 | 21 | 186 | 0.0 | 0.0 | 0.00 | 0.00 | 0.00 | 65 | 1016.6 |
| 20260901080538 | 21 | 186 | 0.0 | 0.0 | 0.00 | 0.00 | 0.00 | 65 | 1016.7 |
| 20260901080038 | 21 | 186 | 0.0 | 0.0 | 0.00 | 0.00 | 0.00 | 65 | 1016.7 |
| 20260901075540 | 21 | 186 | 0.0 | 0.0 | 0.00 | 0.00 | 0.00 | 65 | 1016.7 |
| 20260901075038 | 21 | 185 | 0.0 | 0.0 | 0.00 | 0.00 | 0.00 | 65 | 1016.7 |
| 20260901074537 | 21 | 185 | 0.0 | 0.0 | 0.00 | 0.00 | 0.00 | 65 | 1016.7 |
| 20260901074036 | 21 | 188 | 0.0 | 0.0 | 0.00 | 0.00 | 0.00 | 65 | 1016.6 |
| 20260901073536 | 21 | 188 | 0.0 | 0.0 | 0.00 | 0.00 | 0.00 | 65 | 1016.6 |
| 20260901073037 | 21 | 188 | 0.0 | 0.0 | 0.00 | 0.00 | 0.00 | 65 | 1016.6 |
| 20260901072536 | 21 | 188 | 0.0 | 0.0 | 0.00 | 0.00 | 0.00 | 65 | 1016.7 |
| 20260901072034 | 21 | 188 | 0.0 | 0.0 | 0.00 | 0.00 | 0.00 | 64 | 1016.7 |
| 20260901071532 | 21 | 188 | 0.0 | 0.0 | 0.00 | 0.00 | 0.00 | 65 | 1016.8 |
| 20260901071034 | 21 | 188 | 0.0 | 0.0 | 0.00 | 0.00 | 0.00 | 65 | 1016.8 |
| 20260901070531 | 21 | 188 | 0.0 | 0.0 | 0.00 | 0.00 | 0.00 | 64 | 1016.9 |
| 20260901070030 | 22 | 188 | 0.0 | 0.0 | 0.00 | 0.00 | 0.00 | 64 | 1016.9 |
| 20260901065530 | 22 | 188 | 0.0 | 0.0 | 0.00 | 0.00 | 0.00 | 64 | 1017.0 |
| 20260901065030 | 22 | 188 | 0.0 | 0.0 | 0.00 | 0.00 | 0.00 | 64 | 1016.9 |
| 20260901064532 | 22 | 188 | 0.0 | 0.0 | 0.00 | 0.00 | 0.00 | 64 | 1016.9 |
| 20260901064029 | 22 | 188 | 0.0 | 0.0 | 0.00 | 0.00 | 0.00 | 63 | 1017.0 |
| 20260901063527 | 22 | 188 | 0.0 | 0.0 | 0.00 | 0.00 | 0.00 | 63 | 1017.1 |
| 20260901063030 | 22 | 188 | 0.0 | 0.0 | 0.00 | 0.00 | 0.00 | 63 | 1017.0 |
| 20260901062526 | 22 | 188 | 0.0 | 0.0 | 0.00 | 0.00 | 0.00 | 63 | 1017.0 |
| 20260901062026 | 22 | 188 | 0.0 | 0.0 | 0.00 | 0.00 | 0.00 | 63 | 1017.0 |
| 20260901061525 | 22 | 186 | 0.0 | 0.0 | 0.00 | 0.00 | 0.00 | 63 | 1017.1 |
| 20260901061025 | 22 | 186 | 0.0 | 0.0 | 0.00 | 0.00 | 0.00 | 63 | 1017.1 |
| 20260901060524 | 22 | 186 | 0.0 | 0.0 | 0.00 | 0.00 | 0.00 | 63 | 1017.1 |
| 20260901060024 | 22 | 186 | 0.0 | 0.0 | 0.00 | 0.00 | 0.00 | 62 | 1017.2 |
| 20260901055525 | 22 | 193 | 0.0 | 0.0 | 0.00 | 0.00 | 0.00 | 63 | 1017.1 |
| 20260901055024 | 22 | 194 | 0.0 | 0.0 | 0.00 | 0.00 | 0.00 | 63 | 1017.1 |
| 20260901054523 | 22 | 193 | 0.0 | 0.0 | 0.00 | 0.00 | 0.00 | 63 | 1017.2 |
| 20260901054024 | 22 | 193 | 0.0 | 0.0 | 0.00 | 0.00 | 0.00 | 63 | 1017.2 |
| 20260901053524 | 22 | 184 | 0.0 | 0.0 | 0.00 | 0.00 | 0.00 | 62 | 1017.3 |
| 20260901053022 | 22 | 184 | 0.0 | 0.0 | 0.00 | 0.00 | 0.00 | 62 | 1017.3 |
| 20260901052520 | 22 | 184 | 0.0 | 0.0 | 0.00 | 0.00 | 0.00 | 62 | 1017.3 |
| 20260901052019 | 23 | 184 | 0.0 | 0.0 | 0.00 | 0.00 | 0.00 | 62 | 1017.3 |
| 20260901051519 | 23 | 184 | 0.0 | 0.0 | 0.00 | 0.00 | 0.00 | 61 | 1017.3 |
| 20260901051019 | 23 | 184 | 0.0 | 0.0 | 0.00 | 0.00 | 0.00 | 61 | 1017.2 |
| 20260901050519 | 23 | 184 | 0.0 | 0.0 | 0.00 | 0.00 | 0.00 | 61 | 1017.2 |
| 20260901050019 | 23 | 184 | 0.0 | 0.0 | 0.00 | 0.00 | 0.00 | 61 | 1017.2 |
| 20260901045518 | 23 | 183 | 0.0 | 0.0 | 0.00 | 0.00 | 0.00 | 61 | 1017.2 |
| 20260901045018 | 23 | 178 | 0.0 | 0.0 | 0.00 | 0.00 | 0.00 | 61 | 1017.1 |
| 20260901044518 | 23 | 183 | 0.0 | 0.0 | 0.00 | 0.00 | 0.00 | 61 | 1017.1 |
| 20260901044017 | 23 | 200 | 0.0 | 0.0 | 0.00 | 0.00 | 0.00 | 62 | 1017.1 |
| 20260901043517 | 23 | 202 | 0.0 | 0.0 | 0.00 | 0.00 | 0.00 | 62 | 1017.2 |
| 20260901043016 | 23 | 202 | 0.0 | 0.0 | 0.00 | 0.00 | 0.00 | 62 | 1017.2 |
| 20260901042517 | 23 | 202 | 0.0 | 0.0 | 0.00 | 0.00 | 0.00 | 63 | 1017.2 |
| 20260901042015 | 23 | 202 | 0.0 | 0.0 | 0.00 | 0.00 | 0.00 | 63 | 1017.1 |
| 20260901041515 | 23 | 202 | 0.0 | 0.0 | 0.00 | 0.00 | 0.00 | 63 | 1017.1 |
| 20260901041014 | 23 | 202 | 0.0 | 0.0 | 0.00 | 0.00 | 0.00 | 63 | 1017.1 |
| 20260901040514 | 23 | 202 | 0.0 | 0.0 | 0.00 | 0.00 | 0.00 | 63 | 1017.1 |
| 20260901040013 | 23 | 202 | 0.0 | 0.0 | 0.00 | 0.00 | 0.00 | 63 | 1017.1 |
| 20260901035513 | 23 | 202 | 0.0 | 0.0 | 0.00 | 0.00 | 0.00 | 63 | 1017.0 |
| 20260901035011 | 23 | 202 | 0.0 | 0.0 | 0.00 | 0.00 | 0.00 | 63 | 1017.0 |
| 20260901034521 | 23 | 202 | 0.0 | 0.0 | 0.00 | 0.00 | 0.00 | 63 | 1017.0 |
| 20260901034011 | 23 | 202 | 0.0 | 0.0 | 0.00 | 0.00 | 0.00 | 63 | 1017.0 |
| 20260901033511 | 23 | 202 | 0.0 | 0.0 | 0.00 | 0.00 | 0.00 | 63 | 1017.0 |
| 20260901033011 | 23 | 202 | 0.0 | 0.0 | 0.00 | 0.00 | 0.00 | 63 | 1017.0 |
| 20260901032511 | 23 | 202 | 0.0 | 0.0 | 0.00 | 0.00 | 0.00 | 63 | 1016.9 |
| 20260901032011 | 23 | 202 | 0.0 | 0.0 | 0.00 | 0.00 | 0.00 | 63 | 1016.9 |
| 20260901031510 | 23 | 202 | 0.0 | 0.0 | 0.00 | 0.00 | 0.00 | 63 | 1016.8 |
| 20260901031010 | 23 | 202 | 0.0 | 0.0 | 0.00 | 0.00 | 0.00 | 63 | 1016.8 |
| 20260901030510 | 23 | 202 | 0.0 | 0.0 | 0.00 | 0.00 | 0.00 | 63 | 1016.8 |
| 20260901030010 | 23 | 202 | 0.0 | 0.0 | 0.00 | 0.00 | 0.00 | 63 | 1016.8 |
| 20260901025511 | 24 | 202 | 0.0 | 0.0 | 0.00 | 0.00 | 0.00 | 63 | 1016.8 |
| 20260901025012 | 24 | 202 | 0.0 | 0.0 | 0.00 | 0.00 | 0.00 | 62 | 1016.8 |
| 20260901024510 | 24 | 202 | 0.0 | 0.0 | 0.00 | 0.00 | 0.00 | 62 | 1016.8 |
| 20260901024009 | 24 | 202 | 0.0 | 0.0 | 0.00 | 0.00 | 0.00 | 62 | 1016.8 |
| 20260901023509 | 24 | 202 | 0.0 | 0.0 | 0.00 | 0.00 | 0.00 | 62 | 1016.8 |
| 20260901023014 | 24 | 203 | 0.0 | 0.0 | 0.00 | 0.00 | 0.00 | 62 | 1016.7 |
| 20260901022510 | 24 | 204 | 0.0 | 0.0 | 0.00 | 0.00 | 0.00 | 62 | 1016.7 |
| 20260901022008 | 24 | 203 | 0.0 | 0.0 | 0.00 | 0.00 | 0.00 | 63 | 1016.7 |
| 20260901021511 | 24 | 203 | 0.0 | 0.0 | 0.00 | 0.00 | 0.00 | 63 | 1016.7 |
| 20260901021009 | 24 | 205 | 0.0 | 0.0 | 0.00 | 0.00 | 0.00 | 63 | 1016.7 |
| 20260901020509 | 24 | 205 | 0.0 | 0.0 | 0.00 | 0.00 | 0.00 | 63 | 1016.7 |
| 20260901020008 | 24 | 205 | 0.0 | 0.0 | 0.00 | 0.00 | 0.00 | 63 | 1016.7 |
| 20260901015509 | 24 | 205 | 0.0 | 0.0 | 0.00 | 0.00 | 0.00 | 63 | 1016.7 |
| 20260901015007 | 25 | 205 | 0.0 | 0.0 | 0.00 | 0.00 | 0.00 | 63 | 1016.7 |